COSMOS 1579 COOLANT, 26513

Orbit data source: Space-Track

COSMOS 1579 COOLANT, 26513 is space debris in LEO originally from a launch on Fri, 29 Jun 1984 UTC launched from the Tyuratam Missile And Space Complex (TTMTR). Debris objects in space refer to the collection of defunct objects orbiting the Earth. Examples of debris include non-operational satellites, rocket bodies, and fragments generated from explosions, collisions, or faulty payload assembly.

Loading next visibility...
Identifier
26513, 1984-069E
Orbit
LEO
Country
Flag of CISCIS
Related business
Manufacturer
Unknown
Mission
Spacecraft
Bus & Motor
Unknown
Mass
Unknown
Launch date (UTC)
1984-06-29 (41 years ago)
Launch vehicle
Unknown
Launch site
Tyuratam Missile And Space Complex (TTMTR)
Object type
Payload
Rocket body
Debris
Shape & HBR
Unknown shape, 0.1 m
Radar Cross Section
Small (<0.1 m²)

Expand to show TLE details & history
Last TLE update: 1 month ago

TLE from 1 month ago
0 COSMOS 1579 COOLANT
1 26513U 84069E   25262.37719016  .00000108  00000-0  15622-3 0  9993
2 26513  65.0508 246.8762 0028547  93.3185 339.6256 13.91403741620570
Epoch: 2025-09-19T09:03Z
TLE epoch observation values (Epoch: 2025-09-19T09:03:09.229Z)
Latitude
60.14756°
Longitude
166.30474°
Altitude
913.439 km
Speed
7.411 km/s
True Right ascension
20h 02m 28s
True Declination
60° 00' 07"
Sunlit
Object was in daylight at epoch
Visualization orbit readout
Latitude
Unknown
Longitude
Unknown
Altitude
Unknown
Speed
Unknown
Apparent Right ascension
Unknown
Apparent Declination
Unknown
Sunlit
N/A
Visualization observer readout
Local Sidereal Time
12:26:24
Azimuth
Unknown
Elevation
Unknown
Doppler factor
Unknown
Orbital elements
Apogee altitude
943.155 km
Perigee altitude
901.474 km
Semi-major axis
7,300.451 km
Eccentricity
0.00285
Inclination
65.0508°
RAAN
246.8762°
Arg. of periapsis
93.3185°
True anomaly
339.51133°
Mean anomaly
339.6256°
Eccentric anomaly
339.5685°
Mean motion
3.47951 °/min
Orbital period
103.46 mins
BSTAR
0.00015622
Loading maneuver chart data...
Computing Atmospheric mass density...

Documentation

Showing up to 5 results
|